Regional Weather Roundup
Issued by NWS

Home | Current Version | Previous Version | Graphics & Text | Print | Product List | Glossary On
Versions: 1 2 3 4 5 6 7 8 9 10 11 12 13 14 15 16 17 18 19 20 21 22 23 24 25 26 27 28 29 30 31 32 33 34 35 36 37 38 39 40 41 42 43 44 45 46 47 48 49 50
000
ASUS43 KFSD 241410
RWRSD

WEATHER ROUNDUP FOR SOUTH DAKOTA
NATIONAL WEATHER SERVICE SIOUX FALLS SD
800 AM CST MON NOV 24 2014

NOTE: "FAIR" INDICATES FEW OR NO CLOUDS BELOW 12,000 FEET WITH NO
SIGNIFICANT WEATHER AND/OR OBSTRUCTIONS TO VISIBILITY.


SDZ001>005-009-010-012>017-241500-
NORTHWEST AND NORTH CENTRAL SOUTH DAKOTA

CITY           SKY/WX    TMP DP  RH WIND       PRES   REMARKS
BUFFALO          N/A     21  14  74 NW14      29.74R WCI   8
FAITH            N/A     15  11  83 NW16      29.79R WCI  -1
MOBRIDGE       MOCLDY    18  13  80 NW18      29.77R WCI   2
$$

SDZ012>016-024>037-041>051-057-063-072>074-241500-
SOUTHWEST AND SOUTH CENTRAL SOUTH DAKOTA

CITY           SKY/WX    TMP DP  RH WIND       PRES   REMARKS
RAPID CTY ARPT PTCLDY    20  16  84 SW3       29.80R
PIERRE         CLEAR     19  14  81 NW21G29   29.79R WCI   3
CUSTER         MOCLDY    23  15  71 S3        29.74R
ELLSWORTH AFB  PTCLDY    23  17  80 NE1       29.78R
PHILIP         CLEAR    N/A N/A N/A NW10      29.83R
PINE RIDGE     PTCLDY    21  16  81 W7        29.81R WCI  12
SPEARFISH      LGT SNOW  30  28  93 W13       29.80R WCI  20
WINNER         FAIR      20  15  81 NW20G25   29.78R WCI   4
$$

SDZ004>011-016>023-039-040-241500-
NORTHEAST SOUTH DAKOTA

CITY           SKY/WX    TMP DP  RH WIND       PRES   REMARKS
ABERDEEN       PTCLDY    15   8  73 N21G29    29.73R WCI  -2
WATERTOWN      FLURRIES  14   9  80 NW24G32   29.60R WCI  -5
SISSETON         N/A     13   6  74 N24G37    29.64R WCI  -7
$$

SDZ017-020-022-023-036>040-048>070-241500-
SOUTHEAST SOUTH DAKOTA

CITY           SKY/WX    TMP DP  RH WIND       PRES   REMARKS
SIOUX FALLS    FLURRIES  19  12  74 NW29G35   29.62R WCI   0
HURON          MIX PCPN  18  12  77 NW25G32   29.71R WCI   0
CHAMBERLAIN    CLOUDY    20  15  80 NW21G28   29.77R WCI   4
MITCHELL       MIX PCPN  20  13  74 NW31G37   29.72R WCI   1
YANKTON        CLOUDY   N/A N/A N/A NW24G33   29.68R
$$

ABBREVIATIONS USED IN REMARKS
   TC - TEMPERATURE IN CELSIUS
  WCI - WIND CHILL INDEX
   HX - HEAT INDEX
  VSB - VISIBILITY



USA.gov is the U.S. government's official web portal to all federal, state and local government web resources and services.